Flag for U.S.A. Weather past 2 weeks in St. Paul, Minnesota, U.S.A.

Now
86 °F

Sunny.


Feels Like: 91 °F
Forecast: 66 / 86 °F
Wind: 16 mph from South

Location: St. Paul Downtown Holman Field

Current Time: Jul 5, 2015 at 4:35:51 PM

Latest Report: Jul 5, 2015 at 3:53 PM


Visibility: 10 mi

Pressure: 29.83 "Hg

Humidity: 59%

Dew point: 70 °F

Location of St. PaulLocation

Historic Weather in St. Paul — Graph

°F

St. Paul temperature yesterday

Maximum temperature yesterday: 83 °F (at 3:53 PM)
Minimum temperature yesterday: 62 °F (at 4:53 AM)
Average temperature yesterday: 73 °F

Past Weeks' High & Low Weather Summary

 TemperatureHumidityPressure
High85 °F (Jul 5, 2:53 PM)100% (Jun 22, 8:59 AM)30.11 "Hg (Jun 22, 8:59 AM)
Low55 °F (Jul 2, 4:53 AM)36% (Jun 21, 4:53 PM)29.47 "Hg (Jun 22, 9:53 AM)
Average70 °F71%29.93 "Hg
* Reported Jun 20 2:53 PM — Jul 5 2:53 PM, St. Paul, Weather by CustomWeather, © 2015

Note: Actual official high and low records may vary slightly from our data, if they occured in-between our weather recording intervals... More about our weather records

Advertising

St. Paul weather history for previous 24 hours

 ConditionsComfort  
Time TempWeatherWind HumidityBarometerVisibility
2:53 PM
Sun, Jul 5
85 °FPassing clouds.17 mph61%29.85 "Hg10 mi
1:53 PM84 °FSunny.13 mph61%29.89 "Hg10 mi
12:53 PM81 °FSunny.15 mph65%29.87 "Hg10 mi
11:53 AM78 °FSunny.15 mph66%29.86 "Hg10 mi
10:53 AM76 °FPartly sunny.15 mph67%29.88 "Hg10 mi
9:53 AM74 °FSunny.9 mph71%29.90 "Hg10 mi
8:53 AM73 °FSunny.9 mph69%29.93 "Hg10 mi
7:53 AM70 °FSunny.8 mph76%29.93 "Hg10 mi
6:53 AM66 °FSunny.9 mph84%29.93 "Hg10 mi
5:53 AM64 °FClear.No wind90%29.93 "Hg10 mi
4:53 AM65 °FClear.8 mph85%29.91 "Hg10 mi
3:53 AM67 °FClear.10 mph79%29.91 "Hg10 mi
2:53 AM66 °FClear.8 mph87%29.91 "Hg10 mi
12:53 AM68 °FClear.8 mph87%29.93 "Hg7 mi
11:53 PM
Sat, Jul 4
68 °FFog.8 mph90%29.93 "Hg5 mi
10:53 PM70 °FClear.6 mph84%29.90 "Hg5 mi
9:53 PM73 °FSunny.6 mph74%29.89 "Hg7 mi
8:53 PM75 °FSunny.6 mph69%29.87 "Hg6 mi
7:53 PM79 °FSunny.10 mph65%29.87 "Hg5 mi
6:53 PM81 °FSunny.9 mph58%29.87 "Hg4 mi
5:53 PM83 °FSunny.10 mph55%29.88 "Hg4 mi
4:53 PM83 °FSunny.10 mph57%29.89 "Hg4 mi
Weather by CustomWeather, © 2015

See weather overviewHow to use our weather pages